User: anonymous   Login
Location: Unspecified
(0.0000°N, 0.0000°E)
Time: 19:45:42
(UTC+00:00)
Language:

GALILEO 10 (206) - Orbit

View from above orbital plane
View from above orbital plane
View from above satellite
View from above satellite

Ground track
Ground track

The orbit data is extracted from the following two-line orbital elements,

1 40890U 15045B   21024.70490031  .00000019  00000-0  00000-0 0  9999
2 40890  55.9803 276.0024 0004116   7.7574 352.3263  1.70474880 33465
Epoch (UTC): 24 January 2021 16:55:03
Eccentricity: 0.0004116
inclination: 55.9803°
perigee height: 23209 km
apogee height: 23234 km
right ascension of ascending node: 276.0024°
argument of perigee: 7.7574°
revolutions per day: 1.70474880
mean anomaly at epoch: 352.3263°
orbit number at epoch: 3346

The dashed part of the orbit path shows where the satellite is in the earth's shadow,  

DLR